CZ-6A DEB, 60688

Orbit data source: Space-Track

CZ-6A DEB, 60688 is space debris in LEO originally from a launch on Tue, 06 Aug 2024 UTC launched from the Taiyaun Space Center, China (TSC). Debris objects in space refer to the collection of defunct objects orbiting the Earth. Examples of debris include non-operational satellites, rocket bodies, and fragments generated from explosions, collisions, or faulty payload assembly.

Loading next visibility...
Identifier
60688, 2024-140CR
Orbit
LEO
Country
Flag of CNCN / PRC
Related business
Manufacturer
SAST
Mission
Spacecraft
Bus & Motor
Unknown
Mass
Unknown
Launch date (UTC)
2024-08-06 (2 years ago)
Launch vehicle
Unknown
Launch site
Taiyaun Space Center, China (TSC)
Object type
Payload
Rocket body
Debris
Shape & HBR
Unknown shape, 0.3 m
Radar Cross Section
Medium (>0.1 m² and <1 m²)

Expand to show TLE details & history
Last TLE update: 18 hours ago

TLE from 18 hours ago
0 CZ-6A DEB
1 60688U 24140CR  26129.93748758  .00000860  00000-0  35527-3 0  9999
2 60688  88.9984 278.5498 0028455 327.5332  32.4110 14.25716062 90923
Epoch: 2026-05-09T22:29Z
TLE epoch observation values (Epoch: 2026-05-09T22:29:58.926Z)
Latitude
-0.00002°
Longitude
73.30652°
Altitude
791.902 km
Speed
7.467 km/s
True Right ascension
18h 34m 11s
True Declination
0° 00' 00"
Sunlit
Object was in full shadow at epoch
Visualization orbit readout
Latitude
Unknown
Longitude
Unknown
Altitude
Unknown
Speed
Unknown
Apparent Right ascension
Unknown
Apparent Declination
Unknown
Sunlit
N/A
Visualization observer readout
Local Sidereal Time
00:23:01
Azimuth
Unknown
Elevation
Unknown
Doppler factor
Unknown
Orbital elements
Apogee altitude
823.463 km
Perigee altitude
782.595 km
Semi-major axis
7,181.166 km
Eccentricity
0.00285
Inclination
88.9984°
RAAN
278.5498°
Arg. of periapsis
327.5332°
True anomaly
32.5863°
Mean anomaly
32.411°
Eccentric anomaly
32.4986°
Mean motion
3.56657 °/min
Orbital period
100.94 mins
BSTAR
0.00035527
Loading maneuver chart data...
Computing Atmospheric mass density...
Loading historical data...
Loading historical data...
Loading historical data...
Loading historical data...
Loading historical data...
Loading historical data...
Loading historical data...

Documentation

Showing up to 5 results
|